EWG45K EDDK-EGKK

Flight info

Callsign EWG45K
Flight time 1h 1m
Altitude 32000
Route NVO2Q NVO Y868 NAVAK DCT DENUT L610 TEBRA
Aircraft A320/M-SDE3FGHIRWY/LB1

Departure

Time 2026-05-07 19:58
Airport Cologne Bonn Airport (EDDK)

Arrival

Time 2026-05-07 20:59
Airport London Gatwick Airport (EGKK)
Time Latitude Longitude Altitude Speed Heading
2026-05-07 19:27 50.88198 7.11903 232 ft 0 kts 216°
2026-05-07 19:49 50.88199 7.11903 232 ft 1 kts 216°
2026-05-07 19:49 50.88218 7.11926 236 ft 4 kts 216°
2026-05-07 19:50 50.88240 7.11950 234 ft 4 kts 213°
2026-05-07 19:50 50.88264 7.11970 235 ft 4 kts 193°
2026-05-07 19:50 50.88283 7.11970 234 ft 2 kts 127°
2026-05-07 19:50 50.88284 7.11968 234 ft 0 kts 126°
2026-05-07 19:53 50.88282 7.11971 232 ft 2 kts 126°
2026-05-07 19:53 50.88247 7.12048 232 ft 13 kts 126°
2026-05-07 19:53 50.88191 7.12171 232 ft 14 kts 126°
2026-05-07 19:54 50.88153 7.12304 232 ft 14 kts 85°
2026-05-07 19:54 50.88135 7.12419 232 ft 11 kts 129°
2026-05-07 19:54 50.88080 7.12509 232 ft 11 kts 137°
2026-05-07 19:54 50.88023 7.12591 232 ft 11 kts 137°
2026-05-07 19:55 50.87988 7.12684 234 ft 10 kts 94°
2026-05-07 19:55 50.87995 7.12746 240 ft 0 kts 76°
2026-05-07 19:56 50.87995 7.12748 240 ft 2 kts 76°
2026-05-07 19:56 50.88006 7.12819 238 ft 13 kts 77°
2026-05-07 19:56 50.88002 7.12960 239 ft 8 kts 104°
2026-05-07 19:56 50.87977 7.13014 239 ft 2 kts 139°
2026-05-07 19:57 50.87949 7.13052 239 ft 22 kts 138°
2026-05-07 19:57 50.87634 7.13509 239 ft 97 kts 137°
2026-05-07 19:57 50.86992 7.14439 257 ft 150 kts 137°
2026-05-07 19:57 50.86171 7.15632 731 ft 160 kts 137°
2026-05-07 19:58 50.85336 7.16799 1487 ft 161 kts 138°
2026-05-07 19:58 50.84445 7.18026 1942 ft 180 kts 137°
2026-05-07 19:58 50.83472 7.19388 2353 ft 199 kts 138°
2026-05-07 19:58 50.82391 7.20910 2749 ft 218 kts 138°
2026-05-07 19:59 50.81196 7.22580 3298 ft 234 kts 139°
2026-05-07 19:59 50.79922 7.24206 4196 ft 240 kts 151°
2026-05-07 19:59 50.78325 7.24926 5109 ft 242 kts 180°
2026-05-07 19:59 50.76689 7.24360 5981 ft 245 kts 209°
2026-05-07 20:00 50.75413 7.22609 6816 ft 246 kts 238°
2026-05-07 20:00 50.74813 7.20106 7654 ft 246 kts 265°
2026-05-07 20:00 50.74975 7.17418 8453 ft 253 kts 283°
2026-05-07 20:00 50.75379 7.14590 8955 ft 273 kts 283°
2026-05-07 20:01 50.75802 7.11616 9713 ft 281 kts 282°
2026-05-07 20:01 50.76227 7.08554 10359 ft 294 kts 282°
2026-05-07 20:01 50.76678 7.05273 10650 ft 318 kts 282°
2026-05-07 20:01 50.77158 7.01770 11142 ft 332 kts 282°
2026-05-07 20:02 50.77648 6.98179 11894 ft 337 kts 281°
2026-05-07 20:02 50.78140 6.94544 12693 ft 340 kts 281°
2026-05-07 20:02 50.78634 6.90868 13490 ft 343 kts 281°
2026-05-07 20:02 50.79132 6.87165 14225 ft 346 kts 281°
2026-05-07 20:03 50.79628 6.83474 14903 ft 350 kts 281°
2026-05-07 20:03 50.80133 6.79698 15592 ft 353 kts 281°
2026-05-07 20:03 50.80642 6.75886 16275 ft 356 kts 281°
2026-05-07 20:03 50.81155 6.72036 16952 ft 359 kts 281°
2026-05-07 20:04 50.81673 6.68148 17620 ft 363 kts 281°
2026-05-07 20:04 50.82164 6.64222 18271 ft 366 kts 277°
2026-05-07 20:04 50.82320 6.60190 18836 ft 369 kts 270°
2026-05-07 20:04 50.82369 6.56124 19414 ft 372 kts 270°
2026-05-07 20:05 50.82419 6.52021 19979 ft 374 kts 270°
2026-05-07 20:05 50.82471 6.47890 20548 ft 377 kts 271°
2026-05-07 20:05 50.82523 6.43726 21103 ft 379 kts 270°
2026-05-07 20:05 50.82572 6.39540 21652 ft 382 kts 270°
2026-05-07 20:06 50.82620 6.35326 22197 ft 385 kts 270°
2026-05-07 20:06 50.82668 6.31082 22728 ft 387 kts 270°
2026-05-07 20:06 50.82714 6.26809 23162 ft 390 kts 270°
2026-05-07 20:06 50.82759 6.22523 23431 ft 390 kts 271°
2026-05-07 20:07 50.83169 6.18272 23800 ft 394 kts 284°
2026-05-07 20:07 50.83928 6.14091 24234 ft 397 kts 285°
2026-05-07 20:07 50.84697 6.09888 24671 ft 399 kts 285°
2026-05-07 20:07 50.85473 6.05669 25116 ft 400 kts 285°
2026-05-07 20:08 50.86248 6.01429 25531 ft 402 kts 284°
2026-05-07 20:08 50.86992 5.97148 25937 ft 404 kts 284°
2026-05-07 20:08 50.87707 5.92827 26343 ft 406 kts 283°
2026-05-07 20:08 50.88409 5.88484 26741 ft 409 kts 283°
2026-05-07 20:09 50.89111 5.84112 27134 ft 411 kts 283°
2026-05-07 20:09 50.89817 5.79721 27526 ft 413 kts 283°
2026-05-07 20:09 50.90523 5.75362 27912 ft 415 kts 283°
2026-05-07 20:10 50.91978 5.66460 28675 ft 419 kts 283°
2026-05-07 20:10 50.92711 5.61968 29079 ft 421 kts 283°
2026-05-07 20:10 50.93441 5.57475 29456 ft 422 kts 283°
2026-05-07 20:10 50.94171 5.52957 29808 ft 424 kts 283°
2026-05-07 20:11 50.94904 5.48417 30137 ft 426 kts 283°
2026-05-07 20:11 50.95641 5.43849 30416 ft 428 kts 283°
2026-05-07 20:11 50.96377 5.39263 30700 ft 430 kts 283°
2026-05-07 20:11 50.97114 5.34658 30972 ft 432 kts 283°
2026-05-07 20:12 50.97850 5.30034 31235 ft 433 kts 283°
2026-05-07 20:12 50.98584 5.25405 31489 ft 432 kts 283°
2026-05-07 20:12 50.99316 5.20782 31748 ft 431 kts 283°
2026-05-07 20:12 51.00045 5.16167 31991 ft 430 kts 283°
2026-05-07 20:13 51.00769 5.11578 32075 ft 424 kts 283°
2026-05-07 20:13 51.02175 5.02641 32087 ft 413 kts 283°
2026-05-07 20:14 51.03553 4.93793 32086 ft 412 kts 282°
2026-05-07 20:14 51.04929 4.84945 32087 ft 412 kts 282°
2026-05-07 20:15 51.06303 4.76103 32086 ft 412 kts 282°
2026-05-07 20:15 51.07661 4.67262 32092 ft 411 kts 282°
2026-05-07 20:16 51.08996 4.58478 32088 ft 411 kts 282°
2026-05-07 20:16 51.10342 4.49649 32082 ft 410 kts 282°
2026-05-07 20:17 51.11680 4.40822 32076 ft 410 kts 282°
2026-05-07 20:17 51.13005 4.31985 32074 ft 410 kts 282°
2026-05-07 20:18 51.14323 4.23153 32073 ft 410 kts 282°
2026-05-07 20:18 51.15417 4.15811 32071 ft 410 kts 282°
2026-05-07 20:19 51.16937 4.05539 32072 ft 410 kts 282°
2026-05-07 20:19 51.18022 3.98133 32069 ft 410 kts 282°
2026-05-07 20:20 51.19315 3.89292 32068 ft 410 kts 282°
2026-05-07 20:20 51.20606 3.80439 32068 ft 410 kts 282°
2026-05-07 20:21 51.21886 3.71589 32070 ft 410 kts 282°
2026-05-07 20:21 51.23149 3.62781 32070 ft 410 kts 282°
2026-05-07 20:22 51.24419 3.53916 32066 ft 410 kts 281°
2026-05-07 20:22 51.25680 3.45045 32069 ft 410 kts 281°
2026-05-07 20:23 51.26930 3.36177 32070 ft 409 kts 281°
2026-05-07 20:23 51.28161 3.27297 32078 ft 410 kts 281°
2026-05-07 20:23 51.28772 3.22860 31863 ft 408 kts 281°
2026-05-07 20:24 51.29379 3.18435 31112 ft 409 kts 281°
2026-05-07 20:24 51.29985 3.14014 30554 ft 405 kts 281°
2026-05-07 20:24 51.30586 3.09633 30106 ft 403 kts 281°
2026-05-07 20:24 51.31183 3.05272 29575 ft 400 kts 281°
2026-05-07 20:25 51.31773 3.00943 29070 ft 397 kts 281°
2026-05-07 20:25 51.32354 2.96638 28565 ft 395 kts 281°
2026-05-07 20:25 51.32930 2.92367 28072 ft 392 kts 281°
2026-05-07 20:25 51.33494 2.88176 27592 ft 389 kts 281°
2026-05-07 20:26 51.34059 2.83958 27120 ft 387 kts 281°
2026-05-07 20:26 51.34622 2.79763 26650 ft 384 kts 281°
2026-05-07 20:26 51.35178 2.75598 26184 ft 382 kts 281°
2026-05-07 20:26 51.35722 2.71451 25734 ft 380 kts 280°
2026-05-07 20:27 51.36241 2.67310 25285 ft 378 kts 280°
2026-05-07 20:27 51.36742 2.63196 24841 ft 376 kts 279°
2026-05-07 20:27 51.37235 2.59098 24411 ft 374 kts 279°
2026-05-07 20:27 51.37724 2.55028 23988 ft 372 kts 279°
2026-05-07 20:28 51.38214 2.50977 23543 ft 370 kts 279°
2026-05-07 20:28 51.38700 2.46940 23030 ft 368 kts 279°
2026-05-07 20:28 51.39184 2.42926 22545 ft 366 kts 279°
2026-05-07 20:28 51.39666 2.38935 22064 ft 364 kts 279°
2026-05-07 20:29 51.40144 2.34962 21582 ft 362 kts 279°
2026-05-07 20:29 51.40619 2.31012 21115 ft 360 kts 279°
2026-05-07 20:29 51.41091 2.27082 20652 ft 358 kts 279°
2026-05-07 20:29 51.41565 2.23174 20199 ft 356 kts 279°
2026-05-07 20:30 51.42039 2.19287 19737 ft 355 kts 280°
2026-05-07 20:30 51.42514 2.15423 19303 ft 353 kts 280°
2026-05-07 20:30 51.42988 2.11575 18972 ft 351 kts 280°
2026-05-07 20:30 51.43450 2.07788 18729 ft 350 kts 280°
2026-05-07 20:31 51.43919 2.03951 18489 ft 349 kts 280°
2026-05-07 20:31 51.44384 2.00129 18244 ft 349 kts 279°
2026-05-07 20:31 51.44840 1.96319 17972 ft 348 kts 279°
2026-05-07 20:31 51.45288 1.92512 17699 ft 347 kts 279°
2026-05-07 20:32 51.45733 1.88706 17435 ft 346 kts 279°
2026-05-07 20:32 51.46173 1.84921 17168 ft 345 kts 279°
2026-05-07 20:32 51.46609 1.81150 16905 ft 344 kts 279°
2026-05-07 20:32 51.47046 1.77386 16644 ft 343 kts 279°
2026-05-07 20:33 51.47478 1.73635 16386 ft 342 kts 279°
2026-05-07 20:33 51.47908 1.69896 16129 ft 340 kts 279°
2026-05-07 20:33 51.48334 1.66167 15872 ft 339 kts 278°
2026-05-07 20:33 51.48519 1.62414 15620 ft 337 kts 267°
2026-05-07 20:34 51.48231 1.58704 15371 ft 334 kts 256°
2026-05-07 20:34 51.47528 1.55218 15120 ft 333 kts 249°
2026-05-07 20:34 51.46721 1.51746 14880 ft 332 kts 249°
2026-05-07 20:34 51.45918 1.48281 14638 ft 331 kts 249°
2026-05-07 20:35 51.45119 1.44828 14392 ft 330 kts 249°
2026-05-07 20:35 51.44315 1.41393 14167 ft 328 kts 246°
2026-05-07 20:35 51.43211 1.38217 14080 ft 326 kts 233°
2026-05-07 20:35 51.41706 1.35518 14089 ft 326 kts 221°
2026-05-07 20:36 51.39911 1.33303 14094 ft 326 kts 216°
2026-05-07 20:36 51.38083 1.31147 14099 ft 326 kts 216°
2026-05-07 20:36 51.36255 1.28986 14097 ft 326 kts 216°
2026-05-07 20:36 51.34433 1.26829 14096 ft 326 kts 216°
2026-05-07 20:37 51.32611 1.24674 14096 ft 326 kts 216°
2026-05-07 20:37 51.30784 1.22513 14089 ft 327 kts 216°
2026-05-07 20:37 51.28956 1.20354 14097 ft 327 kts 216°
2026-05-07 20:37 51.27128 1.18196 14097 ft 327 kts 216°
2026-05-07 20:38 51.25296 1.16039 14096 ft 327 kts 216°
2026-05-07 20:38 51.23466 1.13882 14093 ft 327 kts 216°
2026-05-07 20:38 51.21637 1.11733 14092 ft 327 kts 216°
2026-05-07 20:38 51.19803 1.09584 14087 ft 327 kts 216°
2026-05-07 20:39 51.17971 1.07440 14088 ft 327 kts 216°
2026-05-07 20:39 51.16161 1.05322 14090 ft 327 kts 216°
2026-05-07 20:39 51.14307 1.03153 14083 ft 327 kts 216°
2026-05-07 20:39 51.12473 1.01014 14086 ft 327 kts 216°
2026-05-07 20:40 51.10636 0.98870 14082 ft 327 kts 216°
2026-05-07 20:40 51.08828 0.96758 14086 ft 327 kts 216°
2026-05-07 20:40 51.06989 0.94554 14090 ft 327 kts 221°
2026-05-07 20:40 51.05500 0.91940 14067 ft 318 kts 235°
2026-05-07 20:41 51.04465 0.88925 14052 ft 305 kts 244°
2026-05-07 20:41 51.03579 0.85911 14042 ft 299 kts 244°
2026-05-07 20:41 51.02694 0.82940 13809 ft 296 kts 243°
2026-05-07 20:41 51.01814 0.79999 13438 ft 294 kts 244°
2026-05-07 20:42 51.00936 0.77072 13077 ft 293 kts 244°
2026-05-07 20:42 51.00062 0.74162 12723 ft 291 kts 244°
2026-05-07 20:42 50.99193 0.71269 12366 ft 289 kts 244°
2026-05-07 20:42 50.98330 0.68394 12013 ft 288 kts 244°
2026-05-07 20:43 50.97471 0.65536 11668 ft 286 kts 244°
2026-05-07 20:43 50.96614 0.62696 11317 ft 285 kts 244°
2026-05-07 20:43 50.95762 0.59867 10971 ft 283 kts 244°
2026-05-07 20:43 50.94913 0.57057 10626 ft 282 kts 244°
2026-05-07 20:44 50.94067 0.54268 10286 ft 280 kts 244°
2026-05-07 20:44 50.93224 0.51491 9951 ft 278 kts 244°
2026-05-07 20:44 50.92387 0.48734 9574 ft 277 kts 244°
2026-05-07 20:44 50.91746 0.45871 9197 ft 275 kts 259°
2026-05-07 20:45 50.91631 0.42859 8787 ft 274 kts 275°
2026-05-07 20:45 50.92025 0.39913 8372 ft 274 kts 286°
2026-05-07 20:45 50.92559 0.37057 8034 ft 272 kts 286°
2026-05-07 20:45 50.93093 0.34172 7990 ft 271 kts 285°
2026-05-07 20:46 50.93603 0.31392 7993 ft 254 kts 285°
2026-05-07 20:46 50.94082 0.28767 7996 ft 243 kts 285°
2026-05-07 20:46 50.94531 0.26059 7998 ft 257 kts 282°
2026-05-07 20:46 50.94902 0.23370 8000 ft 244 kts 281°
2026-05-07 20:47 50.95253 0.20749 8006 ft 242 kts 281°
2026-05-07 20:47 50.95604 0.18137 8011 ft 242 kts 281°
2026-05-07 20:47 50.95954 0.15530 8017 ft 242 kts 281°
2026-05-07 20:47 50.96303 0.12921 8023 ft 242 kts 281°
2026-05-07 20:48 50.96652 0.10308 8028 ft 242 kts 281°
2026-05-07 20:48 50.96999 0.07699 8034 ft 242 kts 281°
2026-05-07 20:48 50.97205 0.05070 7804 ft 239 kts 272°
2026-05-07 20:48 50.97274 0.02425 7557 ft 240 kts 271°
2026-05-07 20:49 50.97327 -0.00176 7342 ft 239 kts 271°
2026-05-07 20:49 50.97376 -0.02810 7138 ft 238 kts 271°
2026-05-07 20:49 50.97416 -0.05507 7076 ft 248 kts 271°
2026-05-07 20:49 50.97455 -0.08256 7082 ft 250 kts 271°
2026-05-07 20:50 50.97494 -0.11010 7082 ft 250 kts 271°
2026-05-07 20:50 50.97533 -0.13771 7078 ft 250 kts 271°
2026-05-07 20:50 50.97572 -0.16529 7079 ft 250 kts 271°
2026-05-07 20:50 50.97610 -0.19293 7078 ft 250 kts 271°
2026-05-07 20:51 50.97648 -0.22054 7081 ft 250 kts 271°
2026-05-07 20:51 50.97686 -0.24801 6795 ft 248 kts 271°
2026-05-07 20:51 50.97721 -0.27541 6405 ft 248 kts 271°
2026-05-07 20:51 50.97755 -0.30285 5989 ft 249 kts 271°
2026-05-07 20:52 50.97795 -0.33036 5573 ft 249 kts 271°
2026-05-07 20:52 50.97840 -0.35783 5196 ft 249 kts 271°
2026-05-07 20:52 50.97890 -0.38511 4931 ft 244 kts 271°
2026-05-07 20:52 50.98158 -0.41117 4649 ft 239 kts 295°
2026-05-07 20:53 50.99185 -0.43114 4363 ft 233 kts 328°
2026-05-07 20:53 51.00630 -0.44237 4037 ft 231 kts 340°
2026-05-07 20:53 51.02129 -0.45151 3709 ft 231 kts 341°
2026-05-07 20:53 51.03630 -0.46038 3442 ft 230 kts 341°
2026-05-07 20:54 51.05125 -0.46923 3186 ft 229 kts 341°
2026-05-07 20:54 51.06642 -0.47505 3026 ft 227 kts 358°
2026-05-07 20:54 51.08198 -0.47285 3005 ft 224 kts 18°
2026-05-07 20:54 51.09611 -0.46299 3009 ft 219 kts 36°
2026-05-07 20:55 51.10700 -0.44756 3000 ft 203 kts 53°
2026-05-07 20:55 51.11409 -0.42907 2966 ft 192 kts 69°
2026-05-07 20:55 51.11769 -0.40894 2792 ft 188 kts 79°
2026-05-07 20:55 51.12054 -0.38864 2574 ft 186 kts 79°
2026-05-07 20:56 51.12331 -0.36882 2315 ft 181 kts 79°
2026-05-07 20:56 51.12598 -0.34973 2058 ft 171 kts 79°
2026-05-07 20:56 51.12847 -0.33190 1860 ft 155 kts 80°
2026-05-07 20:56 51.13070 -0.31609 1640 ft 140 kts 80°
2026-05-07 20:57 51.13273 -0.30144 1441 ft 132 kts 81°
2026-05-07 20:57 51.13468 -0.28713 1258 ft 133 kts 80°
2026-05-07 20:57 51.13669 -0.27274 1082 ft 133 kts 79°
2026-05-07 20:57 51.13870 -0.25829 915 ft 134 kts 79°
2026-05-07 20:58 51.14073 -0.24378 729 ft 133 kts 79°
2026-05-07 20:58 51.14274 -0.22946 539 ft 132 kts 79°
2026-05-07 20:58 51.14472 -0.21530 356 ft 133 kts 79°
2026-05-07 20:58 51.14670 -0.20110 223 ft 125 kts 79°
2026-05-07 20:59 51.14830 -0.18916 215 ft 89 kts 77°
2026-05-07 20:59 51.14926 -0.18223 208 ft 41 kts 77°
2026-05-07 20:59 51.15012 -0.17879 212 ft 30 kts 54°
2026-05-07 20:59 51.15091 -0.17762 206 ft 11 kts 19°
2026-05-07 21:00 51.15105 -0.17758 206 ft 0 kts
2026-05-07 21:00 51.15107 -0.17759 206 ft 2 kts
2026-05-07 21:00 51.15135 -0.17763 206 ft 11 kts 355°
2026-05-07 21:01 51.15190 -0.17659 215 ft 14 kts 78°
2026-05-07 21:01 51.15209 -0.17502 205 ft 13 kts 79°
2026-05-07 21:01 51.15235 -0.17360 214 ft 13 kts 46°
2026-05-07 21:01 51.15319 -0.17362 213 ft 12 kts 348°
2026-05-07 21:02 51.15392 -0.17385 216 ft 8 kts 349°
2026-05-07 21:02 51.15446 -0.17403 205 ft 7 kts 346°
2026-05-07 21:02 51.15494 -0.17422 205 ft 7 kts 344°
2026-05-07 21:02 51.15537 -0.17439 209 ft 5 kts 348°
2026-05-07 21:03 51.15550 -0.17443 205 ft 0 kts 347°
2026-05-07 21:03 51.15555 -0.17445 205 ft 2 kts 347°
2026-05-07 21:04 51.15568 -0.17450 205 ft 2 kts 347°
2026-05-07 21:04 51.15596 -0.17460 209 ft 9 kts 347°
2026-05-07 21:04 51.15682 -0.17489 208 ft 13 kts 348°
2026-05-07 21:04 51.15760 -0.17490 214 ft 11 kts 40°
2026-05-07 21:05 51.15770 -0.17448 209 ft 1 kts 76°
2026-05-07 21:05 51.15775 -0.17417 207 ft 8 kts 77°
2026-05-07 21:05 51.15792 -0.17285 213 ft 15 kts 78°
2026-05-07 21:05 51.15813 -0.17135 207 ft 12 kts 75°
2026-05-07 21:06 51.15883 -0.17070 205 ft 13 kts 24°
2026-05-07 21:06 51.15955 -0.16974 210 ft 15 kts 58°
2026-05-07 21:06 51.15979 -0.16879 216 ft 11 kts 76°
2026-05-07 21:06 51.15970 -0.16833 215 ft 1 kts 143°
2026-05-07 21:07 51.15924 -0.16836 208 ft 5 kts 191°
2026-05-07 21:07 51.15911 -0.16840 210 ft 0 kts 190°